Regional Weather Roundup
Issued by NWS

Home | Current Version | Previous Version | Graphics & Text | Print | Product List | Glossary On
Versions: 1 2 3 4 5 6 7 8 9 10 11 12 13 14 15 16 17 18 19 20 21 22 23 24 25 26 27 28 29 30 31 32 33 34 35 36 37 38 39 40 41 42 43 44 45 46 47 48 49 50
000
ASUS45 KCYS 220510
RWRWY

WYOMING REGIONAL WEATHER ROUNDUP
NATIONAL WEATHER SERVICE CHEYENNE WY
1100 PM MDT MON JUL 21 2014

NOTE:  "FAIR" INDICATES FEW OR NO CLOUDS BELOW 12,000 FEET
WITH NO SIGNIFICANT WEATHER AND/OR OBSTRUCTIONS TO VISIBILITY.

WYZ001-220600-
YELLOWSTONE NATIONAL PARK

CITY           SKY/WX    TMP DP  RH WIND       PRES   REMARKS
LK YELLOWSTONE   N/A     49  47  93 VRB3      30.43R
W YELLOWSTONE  NOT AVBL

$$
WYZ002>013-054>058-071-098>099-220600-
NORTHERN WYOMING

CITY           SKY/WX    TMP DP  RH WIND       PRES   REMARKS
JACKSON        CLOUDY    59  46  63 NW3       30.31R
CODY           MOCLDY    70  43  37 S7        30.18F
GREYBULL       PTCLDY    75  46  35 NW9       30.10R
WORLAND        CLEAR     71  48  43 N6        30.12R
SHERIDAN       MOCLDY    65  56  72 W10       30.12R
BUFFALO        PTCLDY    67  48  50 W7        30.19S
GILLETTE       CLEAR     64  58  80 NW7       30.15R
HULETT         FAIR      63  57  82 MISG      30.15
NEWCASTLE      FAIR      75  46  35 N9        30.08

$$
WYZ014>020-022>026-101>103-220600-
CENTRAL WYOMING

CITY           SKY/WX    TMP DP  RH WIND       PRES   REMARKS
BIG PINEY      PTCLDY    60  41  49 N15       30.36R
PINEDALE       PTCLDY    59  41  51 NW14      30.36S
DUBOIS         FAIR      54  43  66 W9        30.37R
LANDER         PTCLDY    63  41  44 E7        30.20R
RIVERTON       PTCLDY    68  38  33 SE6       30.21R
CASPER         CLEAR     69  48  47 N3        30.21R
DOUGLAS        CLEAR     70  48  45 W12       30.15R

$$
WYZ021-027>030-104>119-220600-
SOUTHERN WYOMING

CITY           SKY/WX    TMP DP  RH WIND       PRES   REMARKS
EVANSTON       PTCLDY    66  31  27 SE7       30.32R
KEMMERER       PTCLDY   N/A N/A N/A CALM      30.33R
ROCK SPRINGS   PTCLDY    72  29  20 NW9       30.30R
DIXON          FAIR      64  37  36 CALM      30.29R
RAWLINS        CLEAR     63  31  30 N8        30.29R
SARATOGA       FAIR      61  36  39 SE3       30.32R
LARAMIE        CLEAR     57  39  51 E6        30.33R
CHEYENNE       CLEAR     68  41  37 W6        30.23S
TORRINGTON     PTCLDY    69  54  58 E6        30.04R
PINE BLUFFS    FAIR      72  45  37 S8        30.17R

$$


USA.gov is the U.S. government's official web portal to all federal, state and local government web resources and services.